Date String (YYYY-MM-DD hh:mm:ss) UTC,Instrument flags,absolute air pressure of the measurement (hPa),sample flow rate (lpm),inlet stack bypass flow (lpm),air temperature of the measurement (°C),ambient temperature measured by the external sensor (°C),aerosol sample conditioner tube jacket temperature (°C),OPC LED temperature (°C),internal box temperature (°C),relative humidity of the measurement (%),span deviation,mass concentration of particles derived from Lorenz-Mie calculation of OPC scattering (μg/m³),mass concentration of particles derived from Lorenz-Mie calculation of OPC scattering (μg/m³),mass concentration of particles derived from Lorenz-Mie calculation of OPC scattering (μg/m³)
DateTimeUTC,F1_M11,P_M11,Q1_M11,Q2_M11,T1_M11,T2_M11,T3_M11,T4_M11,T5_M11,U1_M11,ZSPAN_M11,X2_M11,X0_M11,X1_M11
2023-10-01 05:00:00,SystemResetWarning,0826.9,4.99,000.00,028.5,027.4,000.0,036.8,030.3,17.6,0000.0,0003.53,0008.53,0002.97
2023-10-01 05:01:00,SystemResetWarning,0826.9,4.99,000.00,028.5,027.4,000.0,036.8,030.3,17.6,0000.0,0003.50,0007.94,0002.95
2023-10-01 05:02:00,SystemResetWarning,0826.9,4.99,000.00,028.5,027.0,000.0,036.9,030.3,17.5,0000.0,0003.50,0008.09,0002.93
2023-10-01 05:03:00,SystemResetWarning,0826.8,4.99,000.00,028.5,025.2,000.0,036.8,030.2,17.5,0000.0,0003.46,0007.85,0002.93
2023-10-01 05:04:00,SystemResetWarning,0826.8,5.00,000.00,028.5,024.6,000.0,036.8,030.1,17.5,0000.0,0003.42,0006.87,0002.91
2023-10-01 05:05:00,SystemResetWarning,0826.8,5.01,000.00,028.4,024.7,000.0,036.8,029.9,17.6,0000.0,0003.39,0006.74,0002.87
2023-10-01 05:06:00,SystemResetWarning,0826.8,5.00,000.00,028.3,025.0,000.0,036.8,029.8,17.7,0000.0,0003.39,0006.07,0002.84
2023-10-01 05:07:00,SystemResetWarning,0826.8,5.00,000.00,028.2,025.4,000.0,036.8,029.8,17.8,0000.0,0003.37,0005.94,0002.78
2023-10-01 05:08:00,SystemResetWarning,0826.8,5.00,000.00,028.2,025.7,000.0,036.8,029.8,17.8,0000.0,0003.36,0005.94,0002.75
2023-10-01 05:09:00,SystemResetWarning,0826.8,5.00,000.00,028.2,026.0,000.0,036.8,029.9,17.9,0000.0,0003.33,0005.97,0002.70
2023-10-01 05:10:00,SystemResetWarning,0826.8,4.99,000.00,028.2,026.3,000.0,036.8,029.9,18.0,0000.0,0003.31,0005.92,0002.65
2023-10-01 05:11:00,SystemResetWarning,0826.8,4.99,000.00,028.2,026.5,000.0,036.7,029.9,18.0,0000.0,0003.26,0006.90,0002.61
2023-10-01 05:12:00,SystemResetWarning,0826.8,4.99,000.00,028.2,026.6,000.0,036.7,030.0,18.0,0000.0,0003.26,0006.84,0002.60
2023-10-01 05:13:00,SystemResetWarning,0826.8,5.00,000.00,028.3,026.8,000.0,036.7,030.0,18.0,0000.0,0003.23,0006.94,0002.58
2023-10-01 05:14:00,SystemResetWarning,0826.8,5.00,000.00,028.3,026.9,000.0,036.7,030.0,18.0,0000.0,0003.21,0007.08,0002.55
2023-10-01 05:15:00,SystemResetWarning,0826.7,5.00,000.00,028.3,027.0,000.0,036.7,030.1,17.9,0000.0,0003.20,0007.12,0002.53
2023-10-01 05:16:00,SystemResetWarning,0826.7,5.01,000.00,028.3,027.1,000.0,036.7,030.1,17.9,0000.0,0003.18,0007.08,0002.53
2023-10-01 05:17:00,SystemResetWarning,0826.6,5.01,000.00,028.4,027.1,000.0,036.8,030.1,17.9,0000.0,0003.17,0006.97,0002.53
2023-10-01 05:18:00,SystemResetWarning,0826.6,4.99,000.00,028.4,027.2,000.0,036.8,030.2,17.9,0000.0,0003.18,0006.97,0002.55
2023-10-01 05:19:00,SystemResetWarning,0826.6,4.99,000.00,028.4,027.3,000.0,036.8,030.2,17.9,0000.0,0003.17,0006.86,0002.57
2023-10-01 05:20:00,SystemResetWarning,0826.6,5.00,000.00,028.4,027.3,000.0,036.8,030.2,18.0,0000.0,0003.19,0007.53,0002.58
2023-10-01 05:21:00,SystemResetWarning,0826.6,5.00,000.00,028.5,027.4,000.0,036.8,030.3,17.9,0000.0,0003.21,0007.98,0002.59
2023-10-01 05:22:00,SystemResetWarning,0826.6,5.01,000.00,028.5,027.4,000.0,036.8,030.3,17.9,0000.0,0003.22,0007.40,0002.59
2023-10-01 05:23:00,SystemResetWarning,0826.6,5.00,000.00,028.5,027.4,000.0,036.8,030.3,17.9,0000.0,0003.21,0007.33,0002.57
2023-10-01 05:24:00,SystemResetWarning,0826.6,4.99,000.00,028.5,026.9,000.0,036.9,030.3,17.8,0000.0,0003.19,0006.79,0002.57
2023-10-01 05:25:00,SystemResetWarning,0826.6,5.00,000.00,028.5,025.2,000.0,036.8,030.1,17.9,0000.0,0003.20,0006.48,0002.57
2023-10-01 05:26:00,SystemResetWarning,0826.6,5.00,000.00,028.4,024.7,000.0,036.8,030.0,17.9,0000.0,0003.21,0006.45,0002.58
2023-10-01 05:27:00,SystemResetWarning,0826.6,5.01,000.00,028.3,024.9,000.0,036.8,029.8,18.0,0000.0,0003.23,0007.04,0002.59
2023-10-01 05:28:00,SystemResetWarning,0826.6,5.01,000.00,028.3,025.2,000.0,036.8,029.8,18.1,0000.0,0003.28,0007.30,0002.60
2023-10-01 05:29:00,SystemResetWarning,0826.5,5.00,000.00,028.2,025.5,000.0,036.8,029.8,18.0,0000.0,0003.27,0007.50,0002.57
2023-10-01 05:30:00,SystemResetWarning,0826.5,5.00,000.00,028.2,025.8,000.0,036.8,029.8,18.1,0000.0,0003.26,0008.03,0002.55
2023-10-01 05:31:00,SystemResetWarning,0826.4,5.00,000.00,028.2,026.1,000.0,036.8,029.9,18.1,0000.0,0003.22,0007.38,0002.53
2023-10-01 05:32:00,SystemResetWarning,0826.4,5.00,000.00,028.2,026.3,000.0,036.7,029.9,18.1,0000.0,0003.22,0007.19,0002.51
2023-10-01 05:33:00,SystemResetWarning,0826.3,5.00,000.00,028.2,026.5,000.0,036.7,029.9,18.0,0000.0,0003.22,0007.46,0002.53
2023-10-01 05:34:00,SystemResetWarning,0826.3,5.00,000.00,028.2,026.6,000.0,036.7,030.0,17.9,0000.0,0003.25,0008.09,0002.55
2023-10-01 05:35:00,SystemResetWarning,0826.3,5.01,000.00,028.2,026.7,000.0,036.7,030.0,17.9,0000.0,0003.28,0008.35,0002.56
2023-10-01 05:36:00,SystemResetWarning,0826.2,5.00,000.00,028.3,026.9,000.0,036.7,030.0,17.9,0000.0,0003.26,0008.31,0002.56
2023-10-01 05:37:00,SystemResetWarning,0826.2,4.99,000.00,028.3,026.9,000.0,036.7,030.0,17.9,0000.0,0003.25,0008.31,0002.56
2023-10-01 05:38:00,SystemResetWarning,0826.1,5.00,000.00,028.3,027.0,000.0,036.7,030.1,17.9,0000.0,0003.27,0008.10,0002.55
2023-10-01 05:39:00,SystemResetWarning,0826.0,4.99,000.00,028.3,027.1,000.0,036.8,030.1,17.9,0000.0,0003.25,0008.08,0002.54
2023-10-01 05:40:00,SystemResetWarning,0825.9,4.99,000.00,028.4,027.1,000.0,036.8,030.1,17.8,0000.0,0003.23,0007.90,0002.55
2023-10-01 05:41:00,SystemResetWarning,0825.9,5.00,000.00,028.4,027.2,000.0,036.8,030.2,17.8,0000.0,0003.25,0007.42,0002.54
2023-10-01 05:42:00,SystemResetWarning,0825.9,5.00,000.00,028.4,027.2,000.0,036.8,030.2,17.8,0000.0,0003.29,0007.50,0002.54
2023-10-01 05:43:00,SystemResetWarning,0825.9,5.01,000.00,028.4,027.3,000.0,036.8,030.2,17.7,0000.0,0003.28,0007.42,0002.53
2023-10-01 05:44:00,SystemResetWarning,0825.9,5.01,000.00,028.5,027.3,000.0,036.8,030.2,17.6,0000.0,0003.24,0006.78,0002.49
2023-10-01 05:45:00,SystemResetWarning,0825.9,5.00,000.00,028.5,027.4,000.0,036.8,030.3,17.6,0000.0,0003.19,0006.16,0002.44
2023-10-01 05:46:00,SystemResetWarning,0825.9,4.99,000.00,028.5,027.4,000.0,036.9,030.3,17.6,0000.0,0003.14,0005.11,0002.40
2023-10-01 05:47:00,SystemResetWarning,0825.9,4.99,000.00,028.5,027.3,000.0,036.9,030.3,17.5,0000.0,0003.12,0005.56,0002.37
2023-10-01 05:48:00,SystemResetWarning,0825.9,5.00,000.00,028.5,025.8,000.0,036.8,030.2,17.6,0000.0,0003.12,0005.96,0002.33
2023-10-01 05:49:00,SystemResetWarning,0825.8,5.01,000.00,028.5,024.7,000.0,036.8,030.1,17.7,0000.0,0003.09,0005.85,0002.28
2023-10-01 05:50:00,SystemResetWarning,0825.8,5.01,000.00,028.4,024.7,000.0,036.8,029.9,17.7,0000.0,0002.99,0005.78,0002.23
2023-10-01 05:51:00,SystemResetWarning,0825.8,5.01,000.00,028.3,025.0,000.0,036.8,029.8,17.8,0000.0,0002.94,0005.84,0002.19
2023-10-01 05:52:00,SystemResetWarning,0825.8,5.00,000.00,028.3,025.3,000.0,036.8,029.8,17.8,0000.0,0002.91,0005.87,0002.16
2023-10-01 05:53:00,SystemResetWarning,0825.7,5.00,000.00,028.2,025.7,000.0,036.8,029.9,17.8,0000.0,0002.87,0005.90,0002.11
2023-10-01 05:54:00,SystemResetWarning,0825.7,5.00,000.00,028.2,026.0,000.0,036.8,029.9,17.9,0000.0,0002.85,0005.96,0002.08
2023-10-01 05:55:00,SystemResetWarning,0825.7,5.00,000.00,028.2,026.2,000.0,036.8,029.9,17.8,0000.0,0002.84,0006.05,0002.04
2023-10-01 05:56:00,SystemResetWarning,0825.7,4.99,000.00,028.3,026.5,000.0,036.8,030.0,17.7,0000.0,0002.82,0005.92,0002.03
2023-10-01 05:57:00,SystemResetWarning,0825.6,5.00,000.00,028.3,026.6,000.0,036.8,030.0,17.7,0000.0,0002.79,0005.87,0002.02
2023-10-01 05:58:00,SystemResetWarning,0825.6,5.00,000.00,028.3,026.8,000.0,036.8,030.0,17.7,0000.0,0002.75,0005.41,0002.00
2023-10-01 05:59:00,SystemResetWarning,0825.5,4.99,000.00,028.3,026.9,000.0,036.8,030.1,17.6,0000.0,0002.73,0005.16,0001.98
